Weather History for Naples, Italy

Change the Weather History Date:

Friday, February 8, 2013

  Actual Average Record
Temperature  
Mean Temperature 46 °F -  
Max Temperature 50 °F 57 °F 68 °F (2001)
Min Temperature 37 °F 41 °F 26 °F (2003)
Degree Days  
Heating Degree Days 20    
Moisture  
Dew Point 34 °F    
Average Humidity 68    
Maximum Humidity 93    
Minimum Humidity 50    
Precipitation  
Precipitation 0.00 in 0.12 in - ()
Sea Level Pressure  
Sea Level Pressure 29.61 in    
Wind  
Wind Speed 5 mph ()    
Max Wind Speed 13 mph    
Max Gust Speed 20 mph    
Visibility 6.1 miles    
Events Rain    
Averages and records for this station are not official NWS values.
T = Trace of Precipitation, MM = Missing Value Source: Averaged Metar Reports

Daily Weather History Graph

Daily Weather History Graph

Search for Another Location

Airport:

Trip Planner

Search our weather history database for the weather conditions in past years. The results will help you decide how hot, cold, wet, or windy it might be!

Date:

Astronomy

Feb. 08, 2013 Rise Set
Actual Time 7:05 AM CET 5:28 PM CET
Civil Twilight 6:37 AM CET 5:57 PM CET
Nautical Twilight 6:04 AM CET 6:29 PM CET
Astronomical Twilight 5:32 AM CET 7:01 PM CET
Moon 5:21 AM CET (2/8) 3:41 PM CET (2/8)
Length of Visible Light 11h 20m
Length of Day
10h 23m
Waning Crescent, 5% of the Moon is Illuminated
Feb 8
Waning Crescent
Feb 10
New
Feb 17
First Quarter
Feb 25
Full
Mar 4
Last Quarter

Hourly Weather History & Observations

Time (CET) Temp. Windchill Dew Point Humidity Pressure Visibility Wind Dir Wind Speed Gust Speed Precip Events Conditions
12:20 AM 44.6 °F 43.1 °F 41.0 °F 87% 29.53 in 6.2 mi WSW 3.5 mph - N/A Rain Light Rain
12:50 AM 44.6 °F - 41.0 °F 87% 29.53 in 6.2 mi North 2.3 mph - N/A Rain Light Rain
1:20 AM 42.8 °F - 39.2 °F 87% 29.53 in 6.2 mi Variable 1.2 mph - N/A   Mostly Cloudy
1:50 AM 42.8 °F 41.1 °F 39.2 °F 87% 29.53 in 6.2 mi ENE 3.5 mph - N/A   Scattered Clouds
2:20 AM 42.8 °F 41.1 °F 41.0 °F 93% 29.53 in 6.2 mi East 3.5 mph - N/A   Scattered Clouds
2:50 AM 42.8 °F - 41.0 °F 93% 29.53 in 5.0 mi Variable 2.3 mph - N/A Rain Light Rain
3:20 AM 44.6 °F 42.2 °F 41.0 °F 87% 29.53 in 5.0 mi NE 4.6 mph - N/A Rain Light Rain
3:50 AM 42.8 °F 41.1 °F 39.2 °F 87% 29.53 in 6.2 mi NNE 3.5 mph - N/A   Scattered Clouds
4:20 AM 42.8 °F - 39.2 °F 87% 29.53 in 6.2 mi Variable 2.3 mph - N/A   Scattered Clouds
4:50 AM 44.6 °F 42.2 °F 39.2 °F 81% 29.53 in 6.2 mi NNE 4.6 mph - N/A   Scattered Clouds
5:20 AM 42.8 °F 41.1 °F 37.4 °F 81% 29.53 in 6.2 mi NNE 3.5 mph - N/A   Scattered Clouds
5:50 AM 42.8 °F 41.1 °F 37.4 °F 81% 29.53 in 6.2 mi NNW 3.5 mph - N/A   Scattered Clouds
6:20 AM 42.8 °F 39.3 °F 35.6 °F 76% 29.53 in 6.2 mi NNE 5.8 mph - N/A   Scattered Clouds
6:50 AM 42.8 °F 38.6 °F 33.8 °F 70% 29.56 in 6.2 mi NNE 6.9 mph - N/A   Scattered Clouds
7:20 AM 42.8 °F 38.0 °F 35.6 °F 76% 29.56 in 6.2 mi NNE 8.1 mph - N/A   Mostly Cloudy
7:50 AM 42.8 °F 37.0 °F 35.6 °F 76% 29.59 in 6.2 mi NE 10.4 mph - N/A Rain Light Rain
8:20 AM 42.8 °F 37.0 °F 33.8 °F 70% 29.59 in 6.2 mi ENE 10.4 mph - N/A Rain Light Rain
8:50 AM 42.8 °F 36.2 °F 33.8 °F 70% 29.59 in 6.2 mi NE 12.7 mph - N/A   Mostly Cloudy
9:20 AM 44.6 °F 41.4 °F 35.6 °F 71% 29.59 in 6.2 mi NNE 5.8 mph - N/A   Mostly Cloudy
9:50 AM 46.4 °F 42.9 °F 35.6 °F 66% 29.59 in 6.2 mi ENE 6.9 mph - N/A   Mostly Cloudy
10:20 AM 46.4 °F 44.3 °F 35.6 °F 66% 29.62 in 6.2 mi East 4.6 mph - N/A   Mostly Cloudy
10:50 AM 46.4 °F 44.3 °F 35.6 °F 66% 29.62 in 6.2 mi ENE 4.6 mph - N/A   Mostly Cloudy
11:50 AM 48.2 °F - 33.8 °F 58% 29.62 in 6.2 mi ENE 4.6 mph - N/A   Scattered Clouds
12:20 PM 48.2 °F - 33.8 °F 58% 29.62 in 6.2 mi NNE 5.8 mph - N/A   Partly Cloudy
12:50 PM 50.0 °F - 33.8 °F 54% 29.62 in 6.2 mi East 4.6 mph - N/A   Partly Cloudy
1:20 PM 48.2 °F - 33.8 °F 58% 29.62 in 6.2 mi ENE 8.1 mph 19.6 mph N/A   Mostly Cloudy
1:50 PM 50.0 °F - 32.0 °F 50% 29.62 in 6.2 mi ENE 4.6 mph - N/A   Mostly Cloudy
2:20 PM 50.0 °F - 32.0 °F 50% 29.62 in 6.2 mi ENE 5.8 mph - N/A   Mostly Cloudy
2:50 PM 50.0 °F - 33.8 °F 54% 29.62 in 6.2 mi East 4.6 mph - N/A   Mostly Cloudy
3:20 PM 50.0 °F - 33.8 °F 54% 29.62 in 6.2 mi East 5.8 mph - N/A   Scattered Clouds
3:50 PM 48.2 °F - 33.8 °F 58% 29.62 in 6.2 mi ENE 8.1 mph - N/A   Partly Cloudy
4:20 PM 48.2 °F - 32.0 °F 54% 29.62 in 6.2 mi NE 9.2 mph - N/A   Scattered Clouds
4:50 PM 46.4 °F 41.9 °F 32.0 °F 57% 29.65 in 6.2 mi NE 9.2 mph - N/A   Scattered Clouds
5:20 PM 44.6 °F 39.7 °F 30.2 °F 57% 29.65 in 6.2 mi ENE 9.2 mph - N/A   Mostly Cloudy
5:50 PM 44.6 °F 42.2 °F 30.2 °F 57% 29.65 in 6.2 mi ENE 4.6 mph - N/A   Mostly Cloudy
6:20 PM 44.6 °F 42.2 °F 30.2 °F 57% 29.68 in 6.2 mi East 4.6 mph - N/A   Mostly Cloudy
6:50 PM 44.6 °F 41.4 °F 30.2 °F 57% 29.68 in 6.2 mi ENE 5.8 mph - N/A   Mostly Cloudy
7:20 PM 44.6 °F 40.2 °F 30.2 °F 57% 29.68 in 6.2 mi NE 8.1 mph - N/A   Mostly Cloudy
7:50 PM 44.6 °F 40.7 °F 30.2 °F 57% 29.68 in 6.2 mi NE 6.9 mph - N/A   Mostly Cloudy
8:20 PM 42.8 °F 38.6 °F 30.2 °F 61% 29.71 in 6.2 mi NNE 6.9 mph - N/A   Mostly Cloudy
8:50 PM 44.6 °F 40.2 °F 30.2 °F 57% 29.71 in 6.2 mi North 8.1 mph - N/A   Mostly Cloudy
9:20 PM 44.6 °F 40.7 °F 30.2 °F 57% 29.71 in 6.2 mi NW 6.9 mph - N/A   Mostly Cloudy
9:50 PM 42.8 °F 39.3 °F 30.2 °F 61% 29.71 in 6.2 mi NE 5.8 mph - N/A   Mostly Cloudy
10:20 PM 42.8 °F 41.1 °F 30.2 °F 61% 29.71 in 6.2 mi ENE 3.5 mph - N/A   Scattered Clouds
10:50 PM 41.0 °F - 30.2 °F 65% 29.71 in 6.2 mi North 2.3 mph - N/A   Partly Cloudy
11:20 PM - - - N/A% - 6.2 mi North 4.6 mph - N/A   Partly Cloudy
11:50 PM 37.4 °F 34.9 °F 28.4 °F 70% 29.71 in 6.2 mi NNW 3.5 mph - N/A   Partly Cloudy